Regional Weather Roundup
Issued by NWS

Home | Current Version | Previous Version | Text Only | Print | Product List | Glossary Off
Versions: 1 2 3 4 5 6 7 8 9 10 11 12 13 14 15 16 17 18 19 20 21 22 23 24 25 26 27 28 29 30 31 32 33 34 35 36 37 38 39 40 41 42 43 44 45 46 47 48 49 50

739
ASUS44 KLIX 260501
RWRLA
LOUISIANA WEATHER ROUNDUP
NATIONAL WEATHER SERVICE NEW ORLEANS LA
1100 PM CST THU DEC 25 2014

NOTE: "FAIR" INDICATES FEW OR NO CLOUDS BELOW 12,000 FEET WITH NO
      SIGNIFICANT WEATHER AND/OR OBSTRUCTIONS TO VISIBILITY.
      SKY/WX - SKY CONDITION AND SIGNIFICANT WEATHER.
      TMP - AIR TEMPERATURE.    DP   - DEWPOINT TEMPERATURE.
      RH  - RELATIVE HUMIDITY.  PRES - PRESSURE.
      HX  - HEAT INDEX.         WCI  - WIND CHILL INDEX.

*  THESE STATIONS ARE NOT NWS OR FAA STATIONS AND ARE NOT UNDER
   NWS QUALITY CONTROL.

LAZ040-048-061>063-065-066-069-260600-
SOUTHEAST LOUISIANA

CITY           SKY/WX    TMP DP  RH WIND       PRES   REMARKS
N.O. AUDUBON     N/A     50  44  80 MISG        N/A
N.O. INTL ARPT MOCLDY    48  40  73 SE6       30.20S
N.O. LAKEFRONT MOCLDY    50  41  71 SE7       30.20F
N.O. DOWNTOWN* FAIR      52  37  58 SE7       30.19F
SLIDELL        MOCLDY    41  38  89 CALM      30.19F
BATON ROUGE    MOCLDY    48  40  73 S6        30.19R
BOOTHVILLE     MOCLDY    51  47  86 E5        30.21F
BELLE CHASSE   MOCLDY    46  41  82 E5        30.19F
BOGALUSA*        N/A     46  39  78 SE3       30.21S
GALLIANO*      CLOUDY    53  46  78 MISG      30.22R
NEW ROADS*     FAIR      48  39  71 SE8       30.19S
GONZALES*      NOT AVBL
HAMMOND*       NOT AVBL
HOUMA*         CLOUDY    45  42  90 CALM      30.20S
PORT FOURCHON* CLEAR     57  48  72 SE12      30.23F

$$

LAZ041-044-053-054-260600-
SOUTHWEST LOUISIANA

CITY           SKY/WX    TMP DP  RH WIND       PRES   REMARKS
LAKE CHARLES   MOCLDY    53  49  86 SE13      30.12R
LAFAYETTE      CLOUDY    49  41  74 VRB3      30.17S
PATTERSON      CLOUDY    48  43  81 E6        30.18F
SALT POINT       N/A     60  45  57 E3        30.16F
NEW IBERIA     CLOUDY    48  42  80 SE9       30.17F
CHENAULT AIRPK MOCLDY    50  47  90 SE12      30.13S

$$

LAZ027-028-260600-
CENTRAL LOUISIANA

CITY           SKY/WX    TMP DP  RH WIND       PRES   REMARKS
FORT POLK      CLOUDY    47  43  86 SE10      30.11F
ALEXANDRIA INT CLOUDY    43  40  89 SE6       30.13S
ALEXANDRIA     CLOUDY    41  38  89 CALM      30.15S

$$

LAZ001-002-260600-
NORTHWEST LOUISIANA

CITY           SKY/WX    TMP DP  RH WIND       PRES   REMARKS
SHREVEPORT     MOCLDY    48  42  80 SE13      30.08S
BARKSDALE AFB  CLEAR     47  41  77 S14       30.09S
DTN SHREVEPORT CLEAR     47  40  76 S13       30.09S

$$

LAZ014-016-260600-
NORTHEAST LOUISIANA

CITY           SKY/WX    TMP DP  RH WIND       PRES   REMARKS
MONROE         MOCLDY    42  37  82 S3        30.16S
TALLULAH       MOCLDY    44  37  76 S6        30.18R

$$




USA.gov is the U.S. government's official web portal to all federal, state and local government web resources and services.